#timestamp,LO_Frequency,Hit,StdDev 
1562706015.6,286046999.7,N
1562706035.4,286047000.4,N
1562706055.3,286047000.3,N
1562706075.1,286047000.5,N
1562706095.9,286046999.9,N
1562706115.7,286047000.3,N
1562706135.5,286047002.8,N
1562706155.4,286046998.7,N
1562706175.2,286047000.5,N
1562706195.0,286047000.5,N
1562706195.9,286047000.5,N
1562706215.8,286046998.5,N
1562706235.6,286046998.2,N
1562706255.5,286047000.3,N
1562706275.3,286047002.3,N
1562706295.1,286046999.7,N
1562706315.9,286047002.5,N
1562706335.7,286047001.6,N
1562706355.6,286047002.4,N
1562706375.4,286047001.7,N
1562706395.2,286047001.6,N
1562706415.1,286047002.5,N
1562706416.0,286047002.5,N
1562706435.8,286046999.7,N
1562706455.7,286047002.8,N
1562706475.5,286046999.7,N
1562706495.3,286047002.6,N
1562706515.2,286047002.2,N
1562706535.0,286047002.0,N
1562706535.9,286047002.0,N
1562706555.7,286047002.3,N
1562706575.6,286047001.5,N
1562706595.4,286047000.2,N
1562706615.3,286046999.8,N
1562706635.1,286046999.9,N
1562706655.8,286046998.5,N
1562706675.7,286046999.3,N
1562706695.5,286047000.7,N
1562706715.4,286047000.7,N
1562706735.2,286046998.4,N
1562706755.0,286047002.2,N
1562706755.9,286047002.2,N
1562706775.8,286047002.6,N
1562706795.6,286047001.6,N
1562706815.5,286046999.7,N
1562706835.3,286046999.9,N
1562706855.1,286047000.2,N
1562706875.9,286047000.0,N
1562706895.7,286046999.7,N
1562706915.5,286047000.3,N
1562706935.4,286047000.0,N
1562706955.2,286047000.8,N
1562706975.1,286047001.2,N
1562706976.0,286047001.2,N
1562706995.8,286046998.8,N
1562707015.7,286046998.3,N
1562707035.5,286046999.0,N
1562707055.3,286046997.0,N
1562707075.2,286046999.5,N
1562707095.0,286046996.6,N
1562707095.9,286046996.6,N
1562707115.7,286046997.5,N
1562707135.6,286046997.9,N
1562707155.4,286046997.7,N
1562707175.3,286046997.0,N
1562707195.1,286046999.4,N
1562707215.8,286046996.6,N
1562707235.7,286046997.9,N
1562707255.5,286046996.1,N
1562707275.4,286046996.4,N
1562707295.2,286046996.3,N
1562707315.0,286046996.0,N
1562707315.9,286046996.0,N
1562707335.8,286046995.3,N
1562707355.6,286046994.9,N
1562707375.4,286046996.2,N
1562707395.3,286046997.4,N
1562707415.1,286046996.9,N
1562707435.9,286046995.5,N
1562707455.7,286046995.2,N
1562707475.5,286046995.0,N
1562707495.4,286046995.1,N
1562707515.2,286046995.6,N
1562707535.1,286046994.0,Y
1562707536.0,286046994.0,P
1562707555.8,286046997.3,N
1562707575.6,286046999.6,N
1562707595.5,286046999.3,N
1562707615.3,286046996.6,N
1562707635.1,286046997.9,N
1562707655.9,286046997.8,N
1562707675.7,286046997.3,N
1562707695.6,286046997.4,N
1562707715.4,286046997.4,N
1562707735.2,286046997.9,N
1562707755.1,286046997.4,N
1562707756.0,286046997.4,N
1562707775.8,286046996.7,N
1562707795.7,286046997.6,N
1562707815.5,286046995.2,Y
1562707835.3,286046998.9,P
1562707855.2,286047001.2,N
1562707875.0,286047000.3,N
1562707875.9,286047000.3,N
1562707895.7,286046999.9,N
1562707915.6,286047002.3,N
1562707935.4,286047000.2,N
1562707955.3,286047000.0,N
1562707975.1,286046999.7,N
1562707976.0,286046999.7,N
1562707995.8,286047002.3,N
1562708015.7,286047002.6,N
1562708035.5,286047001.8,N
1562708055.4,286047001.6,N
1562708075.2,286047002.3,N
1562708095.0,286047001.6,N
1562708095.9,286047001.6,N
1562708115.8,286047004.4,Y
1562708135.6,286047002.3,P
1562708155.5,286047002.1,N
1562708175.3,286047002.6,P
1562708195.1,286047001.8,N
1562708215.9,286047001.7,N
1562708235.7,286047002.8,Y
1562708255.6,286047000.3,P
1562708275.4,286047001.2,N
1562708295.2,286047000.5,N
1562708315.1,286046999.8,N
1562708316.0,286046999.8,N
1562708335.8,286046999.7,N
1562708355.6,286047003.6,Y
1562708375.5,286047001.7,P
1562708395.7,286047002.5,P
1562708415.6,286047001.9,N
1562708435.4,286047003.6,Y
1562708455.2,286047002.3,P
1562708475.1,286047000.3,N
1562708476.0,286047000.3,N
1562708495.8,286046999.8,N
1562708515.6,286046998.1,N
1562708535.5,286046998.4,N
1562708555.3,286046998.8,N
1562708575.2,286047000.4,N
1562708595.9,286047002.6,N
1562708615.7,286047002.0,N
1562708635.6,286047001.7,N
1562708655.4,286047001.5,N
1562708675.2,286047000.4,N
1562708695.1,286047000.7,N
1562708696.0,286047000.7,N
1562708715.8,286047001.0,N
1562708735.7,286046998.5,N
1562708755.5,286047000.5,N
1562708775.3,286047002.7,N
1562708795.2,286047000.8,N
1562708815.0,286047001.1,N
1562708815.9,286047001.1,N
1562708835.8,286046998.1,N
1562708855.6,286046999.9,N
1562708875.5,286047000.8,N
1562708895.3,286047001.0,N
1562708915.2,286046998.1,N
1562708935.9,286046998.6,N
1562708955.7,286046998.7,N
1562708975.6,286046998.1,N
1562708995.4,286047001.5,N
1562709015.2,286047002.0,N
1562709035.1,286047004.2,N
1562709036.0,286047004.2,N
1562709055.8,286047002.1,N
1562709075.7,286047000.6,N
1562709095.5,286046999.8,N
1562709115.3,286047002.1,N
1562709135.2,286047000.1,N
1562709155.0,286046999.9,N
1562709155.9,286046999.9,N
1562709175.7,286046999.9,N
1562709195.6,286046999.7,N
1562709215.4,286047000.3,N
1562709235.3,286047001.2,N
1562709255.1,286047000.1,N
1562709275.8,286047000.9,N
1562709295.7,286047000.9,N
1562709315.5,286047001.0,N
1562709335.4,286047000.0,N
1562709355.2,286047001.8,N
1562709375.0,286047001.9,N
1562709395.4,286047000.3,N
1562709415.2,286047011.9,Y
1562709435.0,286047002.0,P
1562709435.9,286047002.0,N
1562709455.8,286047000.5,N
1562709475.6,286046998.1,N
1562709495.5,286047000.7,N
1562709515.3,286047001.1,N
1562709535.1,286047002.4,N
1562709555.9,286047001.6,N
1562709575.7,286047000.2,N
1562709625.6,286047002.4,E
